sat.trackr.live / text

‹ back to catalog

STARLINK-37304

NORAD 68683 · 2026-077X

PAYLOAD ACTIVE UNKNOWN

§ Identity

Operator
Country
US
Launch date
2026-04-11
Launch site
AFWTR
Launch vehicle
Mass (kg)
RCS (m²)

Purposes: comms

External: N2YO · Heavens-Above · Gunter

§ Orbital elements

Epoch: 2026-05-25T02:26:22.303392Z

Period
93.90 min
Inclination
97.2865°
Eccentricity
0.0001174
Mean motion
15.33467567 rev/d
Perigee alt
464.7 km
Apogee alt
466.3 km
Semi-major
6,843.6 km
B*
7.5655e-4
RAAN
16.7567°
Arg perigee
93.1510°
Mean anomaly
266.9867°
Rev number
687

§ Raw data

STARLINK-373041 68683U 26077X   26145.10164703  .00024446  00000+0  75655-3 0  99932 68683  97.2865  16.7567 0001174  93.1510 266.9867 15.33467567  6876

JSON: /api/v1/satellites/68683 · /tle

For live sub-satellite position, see the globe view (requires WebGL).

§ Visibility from observer

Set your observer location to see the next 7 days of passes ≥ 10°. The values pass through the URL so the page stays shareable.

No JS? Fill the form by hand. The geolocation button needs JavaScript.